Weather History for Kahului, HI

Change the Weather History Date:

Tuesday, October 8, 2013

  Actual Average Record
Temperature  
Mean Temperature 76 °F 79 °F  
Max Temperature 85 °F 87 °F 92 °F (1979)
Min Temperature 67 °F 70 °F 62 °F (1958)
Degree Days  
Heating Degree Days 0 0  
Month to date heating degree days 0 0  
Since 1 July heating degree days 0 0  
Cooling Degree Days 11 14  
Month to date cooling degree days 113 112  
Year to date cooling degree days 3361 3080  
Growing Degree Days 24 (Base 50)    
Moisture  
Dew Point 66 °F    
Average Humidity 71    
Maximum Humidity 84    
Minimum Humidity 58    
Precipitation  
Precipitation T in 0.03 in 2.89 in (1989)
Month to date precipitation 0.01 0.22  
Year to date precipitation 8.92 11.30  
Snow  
Snow 0.00 in - - ()
Month to date snowfall 0.0  
Since 1 July snowfall 0.0  
Since 1 September snowfall 0.0  
Snow Depth 0.00 in    
Sea Level Pressure  
Sea Level Pressure 30.05 in    
Wind  
Wind Speed 12 mph (ENE)    
Max Wind Speed 29 mph    
Max Gust Speed 35 mph    
Visibility 10 miles    
Events      
T = Trace of Precipitation, MM = Missing Value Source: NWS Daily Summary

Daily Weather History Graph

Daily Weather History Graph

Search for Another Location

Airport:

Trip Planner

Search our weather history database for the weather conditions in past years. The results will help you decide how hot, cold, wet, or windy it might be!

Date:

Astronomy

Oct. 08, 2013 Rise Set
Actual Time 6:18 AM HST 6:06 PM HST
Civil Twilight 5:56 AM HST 6:29 PM HST
Nautical Twilight 5:31 AM HST 6:54 PM HST
Astronomical Twilight 5:05 AM HST 7:20 PM HST
Moon 9:57 AM HST (10/8) 9:22 PM HST (10/8)
Length of Visible Light 12h 32m
Length of Day
11h 47m
Waxing Crescent, 18% of the Moon is Illuminated
Oct 8
Waxing Crescent
Oct 11
First Quarter
Oct 18
Full
Oct 26
Last Quarter
Nov 3
New

Hourly Weather History & Observations

Time (HST) Temp. Heat Index Dew Point Humidity Pressure Visibility Wind Dir Wind Speed Gust Speed Precip Events Conditions
12:54 AM 71.1 °F - 66.0 °F 84% 30.06 in 10.0 mi ENE 5.8 mph - N/A   Clear
1:54 AM 70.0 °F - 64.9 °F 84% 30.04 in 10.0 mi ESE 6.9 mph - N/A   Clear
2:54 AM 70.0 °F - 64.0 °F 81% 30.03 in 10.0 mi Calm Calm - N/A   Clear
3:54 AM 68.0 °F - 63.0 °F 84% 30.03 in 10.0 mi East 5.8 mph - N/A   Clear
4:54 AM 73.0 °F - 63.0 °F 71% 30.03 in 10.0 mi Calm Calm - N/A   Partly Cloudy
5:54 AM 69.1 °F - 63.0 °F 81% 30.05 in 10.0 mi East 5.8 mph - N/A   Partly Cloudy
6:54 AM 73.9 °F - 64.9 °F 73% 30.06 in 10.0 mi NE 5.8 mph - N/A   Scattered Clouds
7:54 AM 78.1 °F - 66.0 °F 66% 30.08 in 10.0 mi East 13.8 mph 20.7 mph N/A   Scattered Clouds
8:54 AM 80.1 °F 82.1 °F 66.0 °F 62% 30.09 in 10.0 mi ENE 15.0 mph 21.9 mph N/A   Scattered Clouds
9:54 AM 82.9 °F 85.8 °F 68.0 °F 60% 30.09 in 10.0 mi NE 20.7 mph 27.6 mph 0.00 in   Scattered Clouds
10:54 AM 84.9 °F 88.8 °F 69.1 °F 59% 30.08 in 10.0 mi NE 25.3 mph 32.2 mph 0.00 in   Scattered Clouds
11:54 AM 84.0 °F 87.0 °F 68.0 °F 58% 30.05 in 10.0 mi ENE 24.2 mph 32.2 mph 0.00 in   Scattered Clouds
12:54 PM 84.0 °F 87.8 °F 69.1 °F 61% 30.04 in 10.0 mi NE 21.9 mph 32.2 mph N/A   Scattered Clouds
1:54 PM 81.0 °F 83.3 °F 66.9 °F 62% 30.02 in 10.0 mi ENE 18.4 mph 31.1 mph 0.00 in   Scattered Clouds
2:54 PM 82.0 °F 84.1 °F 66.0 °F 58% 30.01 in 10.0 mi ENE 19.6 mph 32.2 mph N/A   Scattered Clouds
3:54 PM 81.0 °F 82.7 °F 64.9 °F 58% 30.01 in 10.0 mi ENE 21.9 mph 31.1 mph N/A   Scattered Clouds
4:54 PM 79.0 °F - 64.9 °F 62% 30.01 in 10.0 mi ENE 24.2 mph 33.4 mph N/A   Scattered Clouds
5:54 PM 78.1 °F - 60.1 °F 54% 30.04 in 10.0 mi ENE 13.8 mph 21.9 mph N/A   Mostly Cloudy
6:54 PM 78.1 °F - 64.0 °F 62% 30.06 in 10.0 mi NE 10.4 mph - N/A   Mostly Cloudy
7:54 PM 77.0 °F - 66.9 °F 71% 30.07 in 10.0 mi NNE 12.7 mph - N/A   Clear
8:54 PM 77.0 °F - 66.0 °F 69% 30.09 in 10.0 mi NNE 9.2 mph - N/A   Scattered Clouds
9:54 PM 77.0 °F - 66.9 °F 71% 30.08 in 10.0 mi NE 11.5 mph 17.3 mph N/A   Partly Cloudy
10:54 PM 75.9 °F - 66.9 °F 74% 30.06 in 10.0 mi ENE 9.2 mph - N/A   Partly Cloudy
11:54 PM 75.0 °F - 66.9 °F 76% 30.06 in 10.0 mi NNE 4.6 mph - N/A   Scattered Clouds